Time,TemperatureF,DewpointF,PressureIn,WindDirection,WindDirectionDegrees,WindSpeedMPH,WindSpeedGustMPH,Humidity,HourlyPrecipIn,Conditions,Clouds,dailyrainin,SolarRadiationWatts/m^2,SoftwareType,DateUTC
2013-07-03 00:22:00,65.0,63.0,30.16,ENE,75,0.0,2.0,92,0.00,,,0.01,0.000000,,2013-07-03 04:22:00,
2013-07-03 00:34:00,65.0,63.0,30.16,NNE,26,0.0,1.0,92,0.00,,,0.01,0.000000,,2013-07-03 04:34:00,
2013-07-03 00:43:00,64.0,62.0,30.17,NNW,339,0.0,1.0,92,0.00,,,0.01,0.000000,,2013-07-03 04:43:00,
2013-07-03 00:52:00,64.0,62.0,30.17,ENE,58,0.0,1.0,92,0.00,,,0.01,0.000000,,2013-07-03 04:52:00,
2013-07-03 01:02:00,64.0,62.0,30.17,NE,39,0.0,1.0,93,0.00,,,0.01,0.000000,,2013-07-03 05:02:00,
2013-07-03 02:07:00,63.0,62.0,30.16,NE,39,0.0,0.0,95,0.00,,,0.01,0.000000,,2013-07-03 06:07:00,
2013-07-03 02:39:00,62.0,61.0,30.16,NE,39,0.0,0.0,96,0.00,,,0.01,0.000000,,2013-07-03 06:39:00,
2013-07-03 02:50:00,62.0,61.0,30.16,NE,39,0.0,0.0,96,0.00,,,0.01,0.000000,,2013-07-03 06:50:00,
2013-07-03 02:55:00,62.0,61.0,30.16,NE,39,0.0,0.0,96,0.00,,,0.01,0.000000,,2013-07-03 06:55:00,
2013-07-03 03:07:00,62.0,61.0,30.16,NE,39,0.0,0.0,96,0.00,,,0.01,0.000000,,2013-07-03 07:07:00,
2013-07-03 03:38:00,62.0,61.0,30.16,NE,39,0.0,0.0,97,0.00,,,0.01,0.000000,,2013-07-03 07:38:00,
2013-07-03 03:47:00,62.0,61.0,30.16,NE,39,0.0,0.0,97,0.00,,,0.01,0.000000,,2013-07-03 07:47:00,
2013-07-03 03:57:00,62.0,61.0,30.15,NE,39,0.0,0.0,97,0.00,,,0.01,0.000000,,2013-07-03 07:57:00,
2013-07-03 04:10:00,62.0,61.0,30.15,NE,39,0.0,0.0,97,0.00,,,0.01,0.000000,,2013-07-03 08:10:00,
2013-07-03 04:16:00,62.0,61.0,30.15,NE,39,0.0,0.0,97,0.00,,,0.01,0.000000,,2013-07-03 08:16:00,
2013-07-03 04:38:00,62.0,61.0,30.15,NE,39,0.0,0.0,97,0.00,,,0.01,0.000000,,2013-07-03 08:38:00,
2013-07-03 05:07:00,62.0,61.0,30.14,NE,39,0.0,0.0,98,0.00,,,0.01,0.000000,,2013-07-03 09:07:00,
2013-07-03 05:56:00,63.0,62.0,30.14,NE,39,0.0,0.0,98,0.00,,,0.01,5.000000,,2013-07-03 09:56:00,
2013-07-03 06:36:00,63.0,63.0,30.15,NE,39,0.0,0.0,99,0.00,,,0.01,26.000000,,2013-07-03 10:36:00,
2013-07-03 06:45:00,64.0,64.0,30.15,NE,39,0.0,0.0,100,0.00,,,0.01,21.000000,,2013-07-03 10:45:00,
2013-07-03 06:55:00,64.0,64.0,30.16,NE,39,0.0,0.0,100,0.00,,,0.01,21.000000,,2013-07-03 10:55:00,
2013-07-03 07:16:00,65.0,65.0,30.16,NE,39,0.0,1.0,100,0.00,,,0.01,47.000000,,2013-07-03 11:16:00,
2013-07-03 07:54:00,70.0,70.0,30.17,West,270,1.0,4.0,100,0.00,,,0.01,158.000000,,2013-07-03 11:54:00,
2013-07-03 08:08:00,71.0,71.0,30.17,WSW,254,0.0,3.0,100,0.00,,,0.01,155.000000,,2013-07-03 12:08:00,
2013-07-03 08:16:00,72.0,72.0,30.17,NW,307,1.0,5.0,100,0.00,,,0.01,134.000000,,2013-07-03 12:16:00,
2013-07-03 08:37:00,73.0,71.0,30.17,WNW,298,0.0,4.0,95,0.00,,,0.01,181.000000,,2013-07-03 12:37:00,
2013-07-03 08:44:00,73.0,71.0,30.17,WNW,298,0.0,4.0,94,0.00,,,0.01,185.000000,,2013-07-03 12:44:00,
2013-07-03 09:08:00,74.0,71.0,30.17,West,277,1.0,3.0,90,0.00,,,0.01,209.000000,,2013-07-03 13:08:00,
2013-07-03 11:06:00,78.0,72.0,30.18,WNW,296,0.0,2.0,82,0.00,,,0.01,255.000000,,2013-07-03 15:06:00,
2013-07-03 11:47:00,78.0,72.0,30.18,NNW,331,0.0,3.0,81,0.00,,,0.01,329.000000,,2013-07-03 15:47:00,
2013-07-03 11:55:00,78.0,72.0,30.18,NW,304,1.0,4.0,81,0.00,,,0.01,438.000000,,2013-07-03 15:55:00,
2013-07-03 12:07:00,78.0,71.0,30.18,WNW,302,0.0,3.0,80,0.00,,,0.01,480.000000,,2013-07-03 16:07:00,
2013-07-03 12:39:00,81.0,72.0,30.17,NW,320,2.0,6.0,74,0.00,,,0.01,598.000000,,2013-07-03 16:39:00,
2013-07-03 13:16:00,82.0,72.0,30.17,West,262,1.0,2.0,71,0.00,,,0.01,652.000000,,2013-07-03 17:16:00,
2013-07-03 13:40:00,83.0,73.0,30.16,WNW,291,0.0,2.0,71,0.00,,,0.01,912.000000,,2013-07-03 17:40:00,
2013-07-03 14:16:00,85.0,71.0,30.15,NW,324,1.0,6.0,63,0.00,,,0.00,209.000000,,2013-07-03 18:16:00,
2013-07-03 14:37:00,86.0,73.0,30.14,NW,322,1.0,3.0,65,0.00,,,0.00,986.000000,,2013-07-03 18:37:00,
2013-07-03 14:56:00,87.0,72.0,30.14,North,359,1.0,5.0,62,0.00,,,0.00,969.000000,,2013-07-03 18:56:00,
2013-07-03 15:38:00,86.0,73.0,30.14,West,278,0.0,4.0,66,0.00,,,0.00,768.000000,,2013-07-03 19:38:00,
2013-07-03 16:05:00,85.0,74.0,30.14,SW,218,2.0,14.0,69,0.00,,,0.00,765.000000,,2013-07-03 20:05:00,
2013-07-03 16:37:00,83.0,73.0,30.13,WNW,295,1.0,5.0,73,0.00,,,0.00,524.000000,,2013-07-03 20:37:00,
2013-07-03 16:55:00,83.0,75.0,30.12,WNW,295,0.0,1.0,76,0.00,,,0.00,457.000000,,2013-07-03 20:55:00,
2013-07-03 17:06:00,85.0,75.0,30.12,SSW,208,0.0,2.0,71,0.00,,,0.00,278.000000,,2013-07-03 21:06:00,
2013-07-03 17:45:00,84.0,73.0,30.11,WNW,288,1.0,3.0,70,0.00,,,0.00,394.000000,,2013-07-03 21:45:00,
2013-07-03 18:06:00,83.0,74.0,30.12,West,264,0.0,9.0,74,0.00,,,0.00,438.000000,,2013-07-03 22:06:00,
2013-07-03 18:15:00,83.0,74.0,30.12,WNW,297,1.0,3.0,74,0.00,,,0.00,153.000000,,2013-07-03 22:15:00,
2013-07-03 18:38:00,82.0,72.0,30.12,West,276,0.0,4.0,73,0.00,,,0.00,62.000000,,2013-07-03 22:38:00,
2013-07-03 18:46:00,82.0,73.0,30.12,West,265,3.0,6.0,74,0.00,,,0.00,33.000000,,2013-07-03 22:46:00,
2013-07-03 18:54:00,82.0,73.0,30.12,West,277,2.0,6.0,74,0.00,,,0.00,40.000000,,2013-07-03 22:54:00,
2013-07-03 19:06:00,82.0,73.0,30.12,WNW,286,0.0,4.0,75,0.00,,,0.00,42.000000,,2013-07-03 23:06:00,
2013-07-03 19:40:00,81.0,73.0,30.12,West,274,0.0,3.0,77,0.00,,,0.00,23.000000,,2013-07-03 23:40:00,
2013-07-03 19:45:00,80.0,72.0,30.12,West,274,0.0,3.0,77,0.00,,,0.00,19.000000,,2013-07-03 23:45:00,
2013-07-03 20:05:00,80.0,74.0,30.12,West,278,0.0,3.0,81,0.00,,,0.00,16.000000,,2013-07-04 00:05:00,
2013-07-03 20:17:00,79.0,73.0,30.12,West,278,0.0,3.0,81,0.00,,,0.00,14.000000,,2013-07-04 00:17:00,
2013-07-03 20:26:00,79.0,73.0,30.13,West,271,0.0,2.0,82,0.00,,,0.00,9.000000,,2013-07-04 00:26:00,
2013-07-03 20:37:00,79.0,73.0,30.14,WNW,282,1.0,3.0,82,0.00,,,0.00,0.000000,,2013-07-04 00:37:00,
2013-07-03 20:49:00,78.0,72.0,30.14,WNW,282,0.0,2.0,83,0.00,,,0.00,0.000000,,2013-07-04 00:49:00,
2013-07-03 20:56:00,78.0,73.0,30.14,WNW,283,0.0,2.0,85,0.00,,,0.00,0.000000,,2013-07-04 00:56:00,
2013-07-03 21:05:00,78.0,73.0,30.14,West,265,0.0,3.0,85,0.00,,,0.00,0.000000,,2013-07-04 01:05:00,
2013-07-03 21:24:00,77.0,72.0,30.15,WSW,248,0.0,4.0,86,0.00,,,0.00,0.000000,,2013-07-04 01:24:00,
2013-07-03 21:38:00,77.0,73.0,30.15,West,266,0.0,6.0,87,0.00,,,0.00,0.000000,,2013-07-04 01:38:00,
2013-07-03 21:54:00,76.0,72.0,30.16,West,262,1.0,3.0,88,0.00,,,0.00,0.000000,,2013-07-04 01:54:00,
2013-07-03 22:08:00,76.0,72.0,30.16,West,262,0.0,3.0,88,0.00,,,0.00,0.000000,,2013-07-04 02:08:00,
2013-07-03 22:55:00,75.0,72.0,30.16,West,278,0.0,3.0,90,0.00,,,0.00,0.000000,,2013-07-04 02:55:00,
2013-07-03 23:05:00,75.0,72.0,30.16,WSW,258,1.0,3.0,91,0.00,,,0.00,0.000000,,2013-07-04 03:05:00,